Regional Weather Roundup
Issued by NWS

Home | Current Version | Previous Version | Text Only | Print | Product List | Glossary On
Versions: 1 2 3 4 5 6 7 8 9 10 11 12 13 14 15 16 17 18 19 20 21 22 23 24 25 26 27 28 29 30 31 32 33 34 35 36 37 38 39 40 41 42 43 44 45 46 47 48 49 50
000
ASUS45 KBOU 261207
RWRCO

WEATHER ROUNDUP FOR COLORADO
NATIONAL WEATHER SERVICE DENVER/BOULDER CO
500 AM MST WED NOV 26 2014

NOTE: "FAIR" INDICATES FEW OR NO CLOUDS BELOW 12000 FEET WITH NO
SIGNIFICANT WEATHER AND/OR OBSTRUCTIONS TO VISIBILITY.

COZ001>005-013-030-031-261300-
...NORTHWEST COLORADO...

CITY           SKY/WX    TMP DP  RH WIND       PRES   REMARKS
CRAIG          CLOUDY    31  26  82 SE3       30.25R
HAYDEN         CLOUDY    28  25  86 CALM      30.24R
MEEKER         CLOUDY    34  26  72 CALM      30.29R
MOUNT WERNER   NOT AVBL
STEAMBOAT SPGS CLOUDY    32  30  92 CALM      30.24R
WALDEN         CLOUDY    34  27  75 W16G30    30.13R WCI  23
$$

COZ006>008-011-261300-
...WEST CENTRAL VALLEYS...

CITY           SKY/WX    TMP DP  RH WIND       PRES   REMARKS
GRAND JUNCTION CLEAR     23  18  81 E5        30.33S WCI  17
MONTROSE       CLOUDY    32  25  75 CALM      30.35R
EAGLE          CLOUDY    37  25  60 W7        30.30R
RIFLE          CLOUDY    28  23  81 S3        30.34S
DELTA          CLOUDY    34  26  74 CALM      30.35R
NUCLA          PTCLDY    32  27  80 S3        30.39R
$$

COZ017>023-064>068-261300-
...SOUTHWEST COLORADO...

CITY           SKY/WX    TMP DP  RH WIND       PRES   REMARKS
DURANGO        PTCLDY    21  12  68 E5        30.31S WCI  15
CORTEZ         CLEAR     20  14  77 NE9       30.36R WCI   9
PAGOSA SPRINGS PTCLDY    17  10  73 CALM      30.32S
TELLURIDE      NOT AVBL
WOLF CREEK PAS NOT AVBL
$$

COZ009-010-012-014-032>034-037-058>063-261300-
...CENTRAL COLORADO...

CITY           SKY/WX    TMP DP  RH WIND       PRES   REMARKS
ASPEN          MIX PCPN  26  22  84 CALM      30.31R
BUENA VISTA    PTCLDY    35  22  58 W26G37    30.17R WCI  23
COPPER MTN     CLOUDY    23  18  80 W21       30.26R WCI   8
BERTHOUD PASS  NOT AVBL
COTTONWOOD PAS LGT SNOW  34  21  60 NW14G43   30.12F WCI  24
GUNNISON       CLOUDY    28  21  74 CALM      30.34S
KREMMLING      MIX PCPN  32  28  86 W23G32    30.22R WCI  19
LEADVILLE      LGT SNOW  25  22  88 N12G20    30.25S FOG     WCI  14
MONARCH PASS   CLOUDY    19  18  93 MISG      30.33R
SALIDA         PTCLDY    41  24  50 W26G38    30.24S
SUNLIGHT       CLOUDY   N/A N/A N/A CALM      30.33R
WILKERSON PASS PTCLDY    23  19  86 NW9G26    30.20R WCI  13
$$

COZ069>075-261300-
...SAN LUIS VALLEY/SANGRE DE CRISTO MOUNTAINS...

CITY           SKY/WX    TMP DP  RH WIND       PRES   REMARKS
ALAMOSA        PTCLDY    10   5  80 SW8       30.27S WCI  -2
LA VETA PASS   PTCLDY    23  18  80 S17G32    30.19S WCI   9
SAGUACHE       NOT AVBL
$$

COZ035-036-038>040-261300-
...NORTHERN COLORADO FRONT RANGE...

CITY           SKY/WX    TMP DP  RH WIND       PRES   REMARKS
DENVER INTL AP CLOUDY    27  22  81 SE5       30.19R WCI  22
DMNS CITY PARK   N/A     27  22  79 E1        30.20S
AURORA         CLOUDY    26  21  82 E5        30.20R WCI  20
FRONT RANGE AP CLOUDY    30  25  80 S3        30.20R
ERIE MUNI ARPT CLOUDY    29  25  85 S5        30.20S WCI  24
BOULDER MUN AP CLOUDY    28  27  93 S3        30.20R
CENTENNIAL     CLOUDY    26  22  84 E7        30.18S WCI  18
BROOMFIELD     LGT SNOW  28  27  93 SE5       30.20R WCI  23
FORT COLLINS   CLOUDY    28  21  74 S6        30.20S WCI  22
LONGMONT       CLOUDY    31  27  83 S5        30.23R WCI  26
$$

COZ041-046-047-076>085-087-088-261300-
...PIKES PEAK/PALMER DIVIDE AND SOUTHERN FOOTHILLS...

CITY           SKY/WX    TMP DP  RH WIND       PRES   REMARKS
COLO. SPRINGS  MOCLDY    27  25  92 S8        30.18R WCI  19
A. F. ACADEMY  CLOUDY    26  22  83 NE7       30.17R WCI  18
ELLICOTT       NOT AVBL
FALCON         NOT AVBL
FORT CARSON    CLOUDY    28  24  87 S10       30.18R WCI  18
LIMON          CLOUDY    23  21  92 NW7       30.17R WCI  15
MONUMENT HILL  CLOUDY    21  19  93 NE5       30.15S WCI  15
TRINIDAD       MOCLDY    28  25  88 S5        30.19S WCI  23
$$

COZ042>045-048>051-090-091-261300-
...NORTHEAST COLORADO...

CITY           SKY/WX    TMP DP  RH WIND       PRES   REMARKS
GREELEY ARPT   CLOUDY    28  19  69 N5        30.22R WCI  23
AKRON          LGT SNOW  27  26  96 NW13      30.17R FOG     WCI  16
BURLINGTON     CLOUDY    29  25  85 NW20      30.14R WCI  16
WRAY           CLOUDY    32  29  88 W14G22    30.17R WCI  22
STERLING       LGT SNOW  32  32 100 NW10      30.20R WCI  24
HOLYOKE        CLOUDY    34  27  75 NW12G17   30.15R WCI  25
FORT MORGAN    CLOUDY    27  25  94 W6        30.21R WCI  20
$$

COZ086-089-092>099-261300-
...SOUTHEAST COLORADO...

CITY           SKY/WX    TMP DP  RH WIND       PRES   REMARKS
PUEBLO         CLEAR     24  21  88 CALM      30.21R
LA JUNTA       CLEAR     27  23  85 W9        30.22R WCI  18
LAMAR          CLEAR     25  23  92 W8        30.19R WCI  16
SPRINGFIELD      N/A     25  24  96 NW7       30.19R WCI  17
$$


USA.gov is the U.S. government's official web portal to all federal, state and local government web resources and services.